N45XS KHND-

Flight info

Callsign N45XS
Flight time N/A
Altitude VFR
Route
Aircraft BE58/L-VGD/C

Departure

Time 2026-05-09 04:56
Airport Henderson Executive Airport (KHND)

Arrival

Time N/A
Airport -
Time Latitude Longitude Altitude Speed Heading
2026-05-09 04:44 35.97780 -115.13740 2413 ft 0 kts
2026-05-09 04:45 35.97780 -115.13739 2413 ft 0 kts
2026-05-09 04:45 35.97780 -115.13740 2413 ft 0 kts
2026-05-09 04:47 35.97780 -115.13739 2413 ft 0 kts
2026-05-09 04:47 35.97780 -115.13740 2413 ft 0 kts
2026-05-09 04:48 35.97780 -115.13739 2413 ft 0 kts
2026-05-09 04:48 35.97780 -115.13740 2413 ft 0 kts
2026-05-09 04:52 35.97780 -115.13739 2413 ft 0 kts
2026-05-09 04:53 35.97780 -115.13740 2413 ft 0 kts
2026-05-09 04:53 35.97784 -115.13738 2413 ft 4 kts 21°
2026-05-09 04:54 35.97870 -115.13693 2410 ft 19 kts 359°
2026-05-09 04:54 35.97971 -115.13638 2407 ft 18 kts
2026-05-09 04:54 35.98083 -115.13622 2402 ft 8 kts 43°
2026-05-09 04:54 35.98085 -115.13609 2402 ft 0 kts 100°
2026-05-09 04:55 35.98074 -115.13533 2403 ft 7 kts 133°
2026-05-09 04:55 35.97921 -115.13535 2409 ft 55 kts 183°
2026-05-09 04:55 35.97356 -115.13541 2455 ft 97 kts 186°
2026-05-09 04:55 35.96701 -115.13535 2843 ft 88 kts 189°
2026-05-09 04:56 35.96003 -115.13533 3014 ft 110 kts 183°
2026-05-09 04:56 35.95213 -115.13506 3300 ft 117 kts 183°
2026-05-09 04:56 35.94371 -115.13371 3529 ft 127 kts 179°
2026-05-09 04:56 35.93472 -115.13216 3804 ft 130 kts 176°
2026-05-09 04:57 35.92567 -115.12942 4109 ft 132 kts 154°
2026-05-09 04:57 35.92045 -115.12051 4401 ft 137 kts 109°
2026-05-09 04:57 35.91890 -115.10878 4682 ft 137 kts 91°
2026-05-09 04:57 35.91966 -115.09654 4799 ft 153 kts 84°
2026-05-09 04:58 35.92139 -115.08340 5104 ft 147 kts 76°
2026-05-09 04:58 35.92269 -115.07133 5412 ft 145 kts 91°
2026-05-09 04:58 35.92246 -115.05821 5507 ft 157 kts 90°
2026-05-09 04:58 35.92249 -115.04518 5904 ft 144 kts 94°
2026-05-09 04:59 35.92265 -115.03209 5914 ft 162 kts 88°
2026-05-09 04:59 35.92287 -115.01795 5975 ft 171 kts 90°
2026-05-09 04:59 35.92305 -115.00304 5981 ft 181 kts 89°
2026-05-09 04:59 35.92325 -114.98724 5966 ft 189 kts 89°
2026-05-09 05:00 35.92315 -114.97063 5981 ft 192 kts 90°
2026-05-09 05:00 35.92297 -114.95390 6005 ft 194 kts 90°
2026-05-09 05:00 35.92283 -114.93705 5992 ft 197 kts 90°
2026-05-09 05:00 35.92271 -114.92014 5988 ft 198 kts 90°
2026-05-09 05:01 35.92263 -114.90299 5985 ft 199 kts 90°
2026-05-09 05:01 35.92257 -114.88585 5978 ft 199 kts 90°
2026-05-09 05:01 35.92252 -114.86875 5973 ft 200 kts 90°
2026-05-09 05:01 35.92247 -114.85152 5973 ft 199 kts 90°
2026-05-09 05:02 35.92240 -114.83433 5972 ft 199 kts 90°
2026-05-09 05:02 35.92233 -114.81692 5964 ft 199 kts 90°
2026-05-09 05:02 35.92224 -114.79987 5961 ft 199 kts 90°
2026-05-09 05:02 35.92332 -114.78262 5948 ft 198 kts 68°
2026-05-09 05:03 35.93219 -114.77032 5965 ft 194 kts 31°
2026-05-09 05:03 35.94406 -114.76227 5960 ft 194 kts 26°
2026-05-09 05:03 35.95622 -114.75524 5945 ft 193 kts 11°
2026-05-09 05:03 35.96891 -114.75803 5948 ft 181 kts 325°
2026-05-09 05:04 35.97533 -114.76987 5957 ft 162 kts 279°
2026-05-09 05:04 35.97507 -114.78322 5963 ft 149 kts 268°
2026-05-09 05:04 35.97612 -114.79551 5964 ft 139 kts 287°
2026-05-09 05:04 35.97940 -114.80636 5968 ft 130 kts 291°
2026-05-09 05:05 35.98283 -114.81683 5978 ft 133 kts 291°
2026-05-09 05:05 35.98644 -114.82769 5981 ft 137 kts 291°
2026-05-09 05:05 35.99016 -114.83898 5984 ft 141 kts 291°
2026-05-09 05:05 35.99385 -114.85031 5984 ft 144 kts 291°
2026-05-09 05:06 35.99761 -114.86200 5985 ft 147 kts 291°
2026-05-09 05:06 36.00004 -114.87431 5943 ft 151 kts 262°
2026-05-09 05:06 35.99560 -114.88667 5743 ft 159 kts 240°
2026-05-09 05:06 35.99028 -114.89793 5804 ft 145 kts 249°
2026-05-09 05:07 35.99025 -114.91013 5672 ft 146 kts 280°
2026-05-09 05:07 35.98926 -114.92252 5525 ft 148 kts 248°
2026-05-09 05:07 35.98548 -114.93420 5546 ft 144 kts 257°
2026-05-09 05:07 35.98343 -114.94649 5572 ft 144 kts 258°
2026-05-09 05:08 35.98179 -114.95866 5717 ft 146 kts 265°
2026-05-09 05:08 35.98119 -114.97146 5810 ft 153 kts 266°
2026-05-09 05:08 35.98064 -114.98496 5747 ft 159 kts 269°
2026-05-09 05:08 35.97963 -114.99822 5715 ft 141 kts 260°
2026-05-09 05:09 35.97810 -115.00924 5724 ft 125 kts 259°
2026-05-09 05:09 35.97642 -115.01965 5727 ft 115 kts 257°
2026-05-09 05:09 35.97477 -115.02950 5704 ft 114 kts 258°
2026-05-09 05:09 35.97319 -115.03974 5584 ft 123 kts 259°
2026-05-09 05:10 35.97136 -115.05019 5351 ft 127 kts 258°
2026-05-09 05:10 35.96966 -115.06056 5128 ft 123 kts 261°
2026-05-09 05:10 35.96857 -115.07111 4844 ft 122 kts 263°
2026-05-09 05:10 35.96751 -115.08160 4547 ft 119 kts 263°
2026-05-09 05:11 35.96627 -115.09126 4324 ft 112 kts 263°
2026-05-09 05:11 35.96551 -115.10075 4069 ft 109 kts 263°
2026-05-09 05:11 35.96469 -115.10983 3878 ft 106 kts 264°
2026-05-09 05:11 35.96409 -115.11879 3710 ft 102 kts 265°
2026-05-09 05:12 35.96359 -115.12729 3725 ft 99 kts 265°
2026-05-09 05:12 35.96299 -115.13573 3736 ft 97 kts 259°
2026-05-09 05:12 35.96186 -115.14419 3801 ft 99 kts 261°
2026-05-09 05:12 35.96068 -115.15279 3861 ft 102 kts 264°
2026-05-09 05:13 35.95997 -115.16137 4085 ft 89 kts 267°
2026-05-09 05:13 35.95953 -115.16798 4356 ft 94 kts 263°
2026-05-09 05:13 35.95816 -115.17616 4621 ft 98 kts 255°
2026-05-09 05:13 35.95818 -115.18558 4690 ft 124 kts 292°
2026-05-09 05:14 35.96411 -115.19283 5049 ft 121 kts 334°
2026-05-09 05:14 35.97268 -115.19363 5294 ft 129 kts 16°
2026-05-09 05:14 35.97953 -115.18581 5421 ft 145 kts 70°
2026-05-09 05:14 35.97980 -115.17327 5613 ft 150 kts 99°
2026-05-09 05:15 35.97882 -115.16018 5847 ft 152 kts 92°
2026-05-09 05:15 35.97879 -115.14705 6087 ft 153 kts 89°
2026-05-09 05:15 35.97924 -115.13397 6328 ft 153 kts 87°
2026-05-09 05:15 35.97991 -115.12088 6567 ft 152 kts 86°
2026-05-09 05:16 35.98068 -115.10771 6806 ft 152 kts 86°
2026-05-09 05:16 35.98144 -115.09467 7036 ft 152 kts 88°
2026-05-09 05:16 35.97790 -115.08192 7021 ft 166 kts 132°
2026-05-09 05:16 35.96762 -115.07539 7064 ft 171 kts 177°
2026-05-09 05:17 35.95573 -115.07726 7150 ft 172 kts 194°
2026-05-09 05:17 35.94394 -115.08062 7252 ft 174 kts 195°
2026-05-09 05:17 35.93215 -115.08407 7356 ft 174 kts 195°
2026-05-09 05:17 35.91988 -115.08769 7220 ft 190 kts 195°
2026-05-09 05:18 35.90624 -115.09181 6780 ft 213 kts 195°
2026-05-09 05:18 35.89124 -115.09635 6365 ft 224 kts 195°
2026-05-09 05:18 35.87633 -115.10074 6300 ft 214 kts 195°
2026-05-09 05:18 35.86196 -115.10497 6314 ft 205 kts 195°
2026-05-09 05:19 35.84814 -115.10899 6329 ft 199 kts 195°
2026-05-09 05:19 35.83458 -115.11295 6284 ft 199 kts 195°
2026-05-09 05:19 35.82096 -115.11693 6215 ft 200 kts 195°
2026-05-09 05:19 35.80749 -115.12154 6135 ft 200 kts 208°
2026-05-09 05:20 35.79901 -115.13449 6145 ft 193 kts 255°
2026-05-09 05:20 35.79922 -115.15077 6157 ft 190 kts 279°
2026-05-09 05:20 35.80146 -115.16694 6152 ft 186 kts 280°
2026-05-09 05:20 35.80369 -115.18239 6153 ft 178 kts 280°
2026-05-09 05:21 35.80584 -115.19723 6156 ft 172 kts 280°
2026-05-09 05:21 35.81137 -115.20972 6162 ft 169 kts 320°
2026-05-09 05:21 35.82206 -115.21594 6162 ft 168 kts 339°
2026-05-09 05:21 35.83312 -115.22055 6157 ft 167 kts 340°
2026-05-09 05:22 35.84431 -115.22510 6155 ft 167 kts 341°
2026-05-09 05:22 35.85567 -115.22804 6152 ft 164 kts 354°
2026-05-09 05:22 35.86699 -115.22754 6146 ft 158 kts
2026-05-09 05:22 35.87764 -115.22542 6145 ft 151 kts
2026-05-09 05:23 35.88772 -115.22310 6116 ft 146 kts 11°
2026-05-09 05:23 35.89727 -115.22021 5863 ft 135 kts 12°
2026-05-09 05:23 35.90608 -115.21711 5642 ft 123 kts 14°
2026-05-09 05:23 35.91422 -115.21412 5464 ft 121 kts 11°
2026-05-09 05:24 35.92234 -115.21137 5428 ft 121 kts 13°
2026-05-09 05:24 35.93044 -115.20847 5425 ft 120 kts 13°
2026-05-09 05:24 35.93893 -115.20573 5318 ft 127 kts 11°
2026-05-09 05:24 35.94762 -115.20307 5140 ft 129 kts 11°
2026-05-09 05:25 35.95631 -115.20060 4954 ft 127 kts 11°
2026-05-09 05:25 35.96507 -115.19756 4692 ft 131 kts 13°
2026-05-09 05:25 35.98253 -115.19183 4221 ft 121 kts
2026-05-09 05:26 35.99040 -115.18888 4237 ft 116 kts 16°
2026-05-09 05:26 35.99847 -115.18557 4046 ft 124 kts 12°
2026-05-09 05:26 36.00692 -115.18252 3870 ft 126 kts 10°
2026-05-09 05:26 36.01540 -115.17976 3689 ft 126 kts 10°
2026-05-09 05:27 36.02383 -115.17678 3528 ft 125 kts 10°
2026-05-09 05:27 36.03232 -115.17407 3345 ft 125 kts
2026-05-09 05:27 36.04075 -115.17161 3241 ft 123 kts
2026-05-09 05:27 36.04896 -115.16922 3251 ft 116 kts
2026-05-09 05:28 36.05672 -115.16674 3296 ft 115 kts 10°
2026-05-09 05:28 36.06341 -115.16064 3183 ft 131 kts 64°
2026-05-09 05:28 36.06370 -115.14964 3110 ft 126 kts 96°
2026-05-09 05:28 36.06313 -115.13895 3008 ft 128 kts 92°
2026-05-09 05:29 36.06292 -115.12815 2981 ft 121 kts 91°
2026-05-09 05:29 36.06324 -115.11745 2856 ft 126 kts 89°
2026-05-09 05:29 36.06304 -115.10644 2766 ft 126 kts 91°
2026-05-09 05:29 36.06371 -115.09583 2604 ft 124 kts 59°
2026-05-09 05:30 36.07044 -115.09255 2509 ft 101 kts 343°
2026-05-09 05:30 36.07406 -115.09856 2385 ft 92 kts 266°
2026-05-09 05:30 36.07369 -115.10708 2317 ft 103 kts 267°
2026-05-09 05:30 36.07363 -115.11614 2207 ft 101 kts 272°
2026-05-09 05:31 36.07377 -115.12440 2106 ft 92 kts 258°
2026-05-09 05:31 36.07364 -115.13161 2093 ft 78 kts 270°
2026-05-09 05:31 36.07362 -115.13915 2271 ft 95 kts 269°
2026-05-09 05:31 36.07360 -115.14759 2526 ft 108 kts 269°
2026-05-09 05:32 36.07337 -115.15733 2792 ft 118 kts 267°